Location: Songkhla
(7.2000°N, 100.6000°E)
Time: 07:35:20
(UTC+07:00)

Gblst 52 Del rocket - Pass Details

Date: 16 April 2026
Orbit: 804 x 1364 km, 51.5° (Epoch: 17 May)

Event Time Altitude Azimuth Distance (km) Brightness Sun altitude
Rises 18:54:36 0° 216° (SW) 3,309 7.6 -7.8°
Reaches altitude 10° 18:57:01 10° 216° (SW) 2,373 6.9 -8.4°
Maximum altitude 19:02:29 90° 302° (WNW) 822 4.2 -9.7°
Drops below altitude 10° 19:08:16 10° 36° (NE) 2,507 6.4 -11.1°
Sets 19:10:53 0° 36° (NE) 3,509 7.2 -11.7°
